Вернуться в каталог

STARLINK-32780

АктивенСвязьVLEO
NORAD 62746·PAYLOAD·🇺🇸 United States

Запущен Jan 21, 2025 с Cape Canaveral Space Force Station

Loading…

Ближайшие Пролёты (ближайшие 24 часа)

TLE

СвежийSource: CelesTrak SupGP

Эпоха: Sep 15, 2026, 03:41 UTC

1 62746C 25014M   26258.15395833  .00042643  00000+0  15446-2 0  2585
2 62746  43.0014 164.7669 0001400 269.9327 290.8288 15.27555755    16

Отслеживайте STARLINK-32780 в реальном времени с AllMySat

Download on the App Store